Time,TemperatureF,DewpointF,PressureIn,WindDirection,WindDirectionDegrees,WindSpeedMPH,WindSpeedGustMPH,Humidity,HourlyPrecipIn,Conditions,Clouds,dailyrainin,SoftwareType,DateUTC
2013-04-16 00:03:00,53.0,46.0,30.13,SE,130,0.0,2.0,78,0.00,,,0.00,,2013-04-16 04:03:00,
2013-04-16 00:13:00,53.0,46.0,30.13,SE,130,0.0,2.0,78,0.00,,,0.00,,2013-04-16 04:13:00,
2013-04-16 00:23:00,53.0,47.0,30.12,SSW,202,0.0,1.0,80,0.00,,,0.00,,2013-04-16 04:23:00,
2013-04-16 00:33:00,53.0,47.0,30.12,SSW,196,0.0,2.0,80,0.00,,,0.00,,2013-04-16 04:33:00,
2013-04-16 00:42:00,53.0,47.0,30.12,SSW,196,0.0,2.0,80,0.00,,,0.00,,2013-04-16 04:42:00,
2013-04-16 00:53:00,52.0,46.0,30.12,South,172,0.0,2.0,81,0.00,,,0.00,,2013-04-16 04:53:00,
2013-04-16 01:02:00,52.0,47.0,30.12,SSE,166,0.0,4.0,82,0.00,,,0.00,,2013-04-16 05:02:00,
2013-04-16 01:12:00,52.0,47.0,30.12,SSE,166,0.0,4.0,82,0.00,,,0.00,,2013-04-16 05:12:00,
2013-04-16 01:22:00,52.0,47.0,30.11,SE,144,1.0,4.0,82,0.00,,,0.00,,2013-04-16 05:22:00,
2013-04-16 01:32:00,52.0,47.0,30.11,SSE,161,0.0,2.0,83,0.00,,,0.00,,2013-04-16 05:32:00,
2013-04-16 01:42:00,52.0,47.0,30.11,SSE,161,0.0,2.0,83,0.00,,,0.00,,2013-04-16 05:42:00,
2013-04-16 01:52:00,52.0,47.0,30.11,SSE,162,0.0,1.0,83,0.00,,,0.00,,2013-04-16 05:52:00,
2013-04-16 02:02:00,52.0,47.0,30.11,SSE,159,0.0,2.0,83,0.00,,,0.00,,2013-04-16 06:02:00,
2013-04-16 02:12:00,52.0,47.0,30.11,SSE,159,0.0,2.0,83,0.00,,,0.00,,2013-04-16 06:12:00,
2013-04-16 02:22:00,52.0,47.0,30.11,SSE,158,0.0,2.0,82,0.00,,,0.00,,2013-04-16 06:22:00,
2013-04-16 02:32:00,52.0,47.0,30.11,SSE,161,0.0,1.0,83,0.00,,,0.00,,2013-04-16 06:32:00,
2013-04-16 02:42:00,52.0,47.0,30.11,SSE,161,0.0,1.0,83,0.00,,,0.00,,2013-04-16 06:42:00,
2013-04-16 02:52:00,52.0,47.0,30.10,South,169,0.0,2.0,83,0.00,,,0.00,,2013-04-16 06:52:00,
2013-04-16 03:02:00,52.0,47.0,30.09,SSE,162,0.0,2.0,83,0.00,,,0.00,,2013-04-16 07:02:00,
2013-04-16 03:12:00,52.0,47.0,30.09,SSE,162,0.0,2.0,83,0.00,,,0.00,,2013-04-16 07:12:00,
2013-04-16 03:22:00,52.0,47.0,30.09,SSE,163,1.0,4.0,84,0.00,,,0.00,,2013-04-16 07:22:00,
2013-04-16 03:32:00,52.0,47.0,30.09,SSE,162,0.0,1.0,84,0.00,,,0.00,,2013-04-16 07:32:00,
2013-04-16 03:42:00,52.0,47.0,30.09,SSE,162,0.0,1.0,84,0.00,,,0.00,,2013-04-16 07:42:00,
2013-04-16 03:53:00,51.0,46.0,30.10,SSE,161,0.0,4.0,84,0.00,,,0.00,,2013-04-16 07:53:00,
2013-04-16 04:02:00,51.0,46.0,30.10,SSE,161,0.0,2.0,84,0.00,,,0.00,,2013-04-16 08:02:00,
2013-04-16 04:12:00,51.0,46.0,30.10,SSE,161,0.0,2.0,84,0.00,,,0.00,,2013-04-16 08:12:00,
2013-04-16 04:22:00,51.0,47.0,30.10,SSE,161,0.0,4.0,85,0.00,,,0.00,,2013-04-16 08:22:00,
2013-04-16 04:32:00,52.0,47.0,30.10,SSE,152,0.0,2.0,84,0.00,,,0.00,,2013-04-16 08:32:00,
2013-04-16 04:42:00,52.0,47.0,30.10,SSE,152,0.0,2.0,84,0.00,,,0.00,,2013-04-16 08:42:00,
2013-04-16 04:52:00,52.0,47.0,30.10,SSE,153,1.0,4.0,84,0.00,,,0.00,,2013-04-16 08:52:00,
2013-04-16 05:02:00,52.0,47.0,30.10,SSW,211,0.0,4.0,84,0.00,,,0.00,,2013-04-16 09:02:00,
2013-04-16 05:12:00,52.0,47.0,30.10,SSW,211,0.0,4.0,84,0.00,,,0.00,,2013-04-16 09:12:00,
2013-04-16 05:22:00,52.0,47.0,30.10,SE,137,0.0,4.0,84,0.00,,,0.00,,2013-04-16 09:22:00,
2013-04-16 05:33:00,52.0,47.0,30.11,SSE,157,1.0,4.0,84,0.00,,,0.00,,2013-04-16 09:33:00,
2013-04-16 05:43:00,52.0,47.0,30.11,SSE,157,1.0,4.0,84,0.00,,,0.00,,2013-04-16 09:43:00,
2013-04-16 05:53:00,52.0,47.0,30.11,SSE,156,0.0,4.0,84,0.00,,,0.00,,2013-04-16 09:53:00,
2013-04-16 06:03:00,53.0,48.0,30.11,SSE,159,0.0,2.0,84,0.00,,,0.00,,2013-04-16 10:03:00,
2013-04-16 06:13:00,53.0,48.0,30.11,SSE,159,0.0,2.0,84,0.00,,,0.00,,2013-04-16 10:13:00,
2013-04-16 06:23:00,53.0,48.0,30.12,East,96,0.0,4.0,82,0.00,,,0.00,,2013-04-16 10:23:00,
2013-04-16 06:33:00,54.0,49.0,30.13,South,190,0.0,4.0,82,0.00,,,0.00,,2013-04-16 10:33:00,
2013-04-16 06:42:00,54.0,49.0,30.13,South,190,0.0,4.0,82,0.00,,,0.00,,2013-04-16 10:42:00,
2013-04-16 06:53:00,54.0,48.0,30.14,SSW,197,0.0,4.0,81,0.00,,,0.00,,2013-04-16 10:53:00,
2013-04-16 07:03:00,55.0,49.0,30.14,SSW,202,0.0,3.0,80,0.00,,,0.00,,2013-04-16 11:03:00,
2013-04-16 07:12:00,55.0,49.0,30.14,SSW,202,0.0,3.0,80,0.00,,,0.00,,2013-04-16 11:12:00,
2013-04-16 07:22:00,55.0,49.0,30.16,East,85,1.0,4.0,79,0.00,,,0.00,,2013-04-16 11:22:00,
2013-04-16 07:32:00,56.0,49.0,30.16,East,100,1.0,7.0,78,0.00,,,0.00,,2013-04-16 11:32:00,
2013-04-16 07:42:00,56.0,49.0,30.16,East,100,1.0,7.0,78,0.00,,,0.00,,2013-04-16 11:42:00,
2013-04-16 07:53:00,56.0,49.0,30.16,SSW,193,0.0,4.0,78,0.00,,,0.00,,2013-04-16 11:53:00,
2013-04-16 08:02:00,57.0,50.0,30.16,SSW,208,0.0,2.0,78,0.00,,,0.00,,2013-04-16 12:02:00,
2013-04-16 08:12:00,57.0,50.0,30.16,SSW,208,0.0,2.0,78,0.00,,,0.00,,2013-04-16 12:12:00,
2013-04-16 08:22:00,58.0,51.0,30.17,NE,49,0.0,5.0,77,0.00,,,0.00,,2013-04-16 12:22:00,
2013-04-16 08:32:00,58.0,50.0,30.18,SSE,167,0.0,4.0,75,0.00,,,0.00,,2013-04-16 12:32:00,
2013-04-16 08:42:00,58.0,50.0,30.18,SSE,167,0.0,4.0,75,0.00,,,0.00,,2013-04-16 12:42:00,
2013-04-16 08:52:00,59.0,51.0,30.18,South,174,1.0,4.0,75,0.00,,,0.00,,2013-04-16 12:52:00,
2013-04-16 09:02:00,60.0,51.0,30.18,ESE,123,0.0,4.0,73,0.00,,,0.00,,2013-04-16 13:02:00,
2013-04-16 09:12:00,60.0,51.0,30.18,ESE,123,0.0,4.0,73,0.00,,,0.00,,2013-04-16 13:12:00,
2013-04-16 09:22:00,61.0,52.0,30.19,WNW,284,0.0,5.0,71,0.00,,,0.00,,2013-04-16 13:22:00,
2013-04-16 09:32:00,62.0,51.0,30.19,SSW,195,2.0,6.0,68,0.00,,,0.00,,2013-04-16 13:32:00,
2013-04-16 09:42:00,62.0,51.0,30.19,SSW,195,2.0,6.0,68,0.00,,,0.00,,2013-04-16 13:42:00,
2013-04-16 09:52:00,63.0,52.0,30.19,ESE,109,1.0,7.0,67,0.00,,,0.00,,2013-04-16 13:52:00,
2013-04-16 10:02:00,64.0,52.0,30.19,SSW,209,1.0,10.0,66,0.00,,,0.00,,2013-04-16 14:02:00,
2013-04-16 10:12:00,64.0,52.0,30.19,SSW,209,1.0,10.0,66,0.00,,,0.00,,2013-04-16 14:12:00,
2013-04-16 10:22:00,65.0,53.0,30.19,SSW,200,7.0,11.0,65,0.00,,,0.00,,2013-04-16 14:22:00,
2013-04-16 10:32:00,66.0,53.0,30.19,SSE,166,7.0,12.0,64,0.00,,,0.00,,2013-04-16 14:32:00,
2013-04-16 10:42:00,66.0,53.0,30.19,SSE,166,7.0,12.0,64,0.00,,,0.00,,2013-04-16 14:42:00,
2013-04-16 10:52:00,67.0,54.0,30.19,WSW,256,5.0,14.0,62,0.00,,,0.00,,2013-04-16 14:52:00,
2013-04-16 11:02:00,68.0,54.0,30.19,West,267,3.0,13.0,62,0.00,,,0.00,,2013-04-16 15:02:00,
2013-04-16 11:12:00,68.0,54.0,30.19,West,267,3.0,13.0,62,0.00,,,0.00,,2013-04-16 15:12:00,
2013-04-16 11:22:00,69.0,55.0,30.19,SW,217,8.0,20.0,60,0.00,,,0.00,,2013-04-16 15:22:00,
2013-04-16 11:33:00,69.0,55.0,30.19,West,267,11.0,22.0,60,0.00,,,0.00,,2013-04-16 15:33:00,
2013-04-16 11:43:00,69.0,55.0,30.19,West,267,11.0,22.0,60,0.00,,,0.00,,2013-04-16 15:43:00,
2013-04-16 11:53:00,69.0,55.0,30.20,West,276,11.0,20.0,60,0.00,,,0.00,,2013-04-16 15:53:00,
2013-04-16 12:03:00,69.0,55.0,30.20,NNW,329,12.0,20.0,60,0.00,,,0.00,,2013-04-16 16:03:00,
2013-04-16 12:13:00,69.0,55.0,30.20,NNW,329,12.0,20.0,60,0.00,,,0.00,,2013-04-16 16:13:00,
2013-04-16 12:23:00,69.0,55.0,30.20,West,265,12.0,18.0,60,0.00,,,0.00,,2013-04-16 16:23:00,
2013-04-16 12:32:00,70.0,55.0,30.20,WSW,242,10.0,15.0,60,0.00,,,0.00,,2013-04-16 16:32:00,
2013-04-16 12:42:00,70.0,55.0,30.20,WSW,242,10.0,15.0,60,0.00,,,0.00,,2013-04-16 16:42:00,
2013-04-16 12:53:00,71.0,56.0,30.19,WSW,253,10.0,22.0,59,0.00,,,0.00,,2013-04-16 16:53:00,
2013-04-16 13:02:00,71.0,55.0,30.19,SW,230,12.0,17.0,57,0.00,,,0.00,,2013-04-16 17:02:00,
2013-04-16 13:12:00,71.0,55.0,30.19,SW,230,12.0,17.0,57,0.00,,,0.00,,2013-04-16 17:12:00,
2013-04-16 13:22:00,71.0,54.0,30.18,SW,219,6.0,18.0,56,0.00,,,0.00,,2013-04-16 17:22:00,
2013-04-16 13:32:00,73.0,57.0,30.17,NW,305,10.0,20.0,57,0.00,,,0.00,,2013-04-16 17:32:00,
2013-04-16 13:43:00,73.0,57.0,30.17,NW,305,10.0,20.0,57,0.00,,,0.00,,2013-04-16 17:43:00,
2013-04-16 13:53:00,73.0,56.0,30.17,South,188,6.0,18.0,56,0.00,,,0.00,,2013-04-16 17:53:00,
2013-04-16 14:02:00,72.0,56.0,30.17,West,262,4.0,13.0,57,0.00,,,0.00,,2013-04-16 18:02:00,
2013-04-16 14:12:00,72.0,56.0,30.17,West,262,4.0,13.0,57,0.00,,,0.00,,2013-04-16 18:12:00,
2013-04-16 14:22:00,73.0,56.0,30.15,SSW,209,6.0,11.0,56,0.00,,,0.00,,2013-04-16 18:22:00,
2013-04-16 14:32:00,74.0,57.0,30.15,NE,52,6.0,11.0,55,0.00,,,0.00,,2013-04-16 18:32:00,
2013-04-16 14:42:00,74.0,57.0,30.15,NE,52,6.0,11.0,55,0.00,,,0.00,,2013-04-16 18:42:00,
2013-04-16 14:52:00,75.0,57.0,30.14,SSW,207,8.0,13.0,53,0.00,,,0.00,,2013-04-16 18:52:00,
2013-04-16 15:02:00,76.0,59.0,30.14,WNW,290,4.0,10.0,56,0.00,,,0.00,,2013-04-16 19:02:00,
2013-04-16 15:12:00,76.0,59.0,30.14,WNW,290,4.0,10.0,56,0.00,,,0.00,,2013-04-16 19:12:00,
2013-04-16 15:22:00,76.0,59.0,30.13,WNW,296,3.0,12.0,55,0.00,,,0.00,,2013-04-16 19:22:00,
2013-04-16 15:32:00,74.0,57.0,30.13,WNW,300,6.0,12.0,55,0.00,,,0.00,,2013-04-16 19:32:00,
2013-04-16 15:42:00,74.0,57.0,30.13,WNW,300,6.0,12.0,55,0.00,,,0.00,,2013-04-16 19:42:00,
2013-04-16 15:52:00,75.0,57.0,30.12,SW,229,10.0,13.0,54,0.00,,,0.00,,2013-04-16 19:52:00,
2013-04-16 16:02:00,75.0,57.0,30.11,SW,233,6.0,12.0,54,0.00,,,0.00,,2013-04-16 20:02:00,
2013-04-16 16:12:00,75.0,57.0,30.11,SW,233,6.0,12.0,54,0.00,,,0.00,,2013-04-16 20:12:00,
2013-04-16 16:22:00,76.0,58.0,30.11,West,264,11.0,15.0,53,0.00,,,0.00,,2013-04-16 20:22:00,
2013-04-16 16:32:00,76.0,57.0,30.12,WNW,297,2.0,18.0,52,0.00,,,0.00,,2013-04-16 20:32:00,
2013-04-16 16:42:00,76.0,57.0,30.12,WNW,297,2.0,18.0,52,0.00,,,0.00,,2013-04-16 20:42:00,
2013-04-16 16:52:00,77.0,58.0,30.11,West,272,6.0,15.0,52,0.00,,,0.00,,2013-04-16 20:52:00,
2013-04-16 17:02:00,77.0,58.0,30.11,NW,311,6.0,15.0,52,0.00,,,0.00,,2013-04-16 21:02:00,
2013-04-16 17:12:00,77.0,58.0,30.11,NW,311,6.0,15.0,52,0.00,,,0.00,,2013-04-16 21:12:00,
2013-04-16 17:22:00,78.0,57.0,30.10,South,175,6.0,17.0,49,0.00,,,0.00,,2013-04-16 21:22:00,
2013-04-16 17:32:00,78.0,57.0,30.11,SSW,202,3.0,15.0,48,0.00,,,0.00,,2013-04-16 21:32:00,
2013-04-16 17:43:00,78.0,57.0,30.11,SSW,202,3.0,15.0,48,0.00,,,0.00,,2013-04-16 21:43:00,
2013-04-16 17:53:00,78.0,57.0,30.11,West,274,3.0,15.0,48,0.00,,,0.00,,2013-04-16 21:53:00,
2013-04-16 18:03:00,79.0,57.0,30.10,WNW,286,8.0,13.0,47,0.00,,,0.00,,2013-04-16 22:03:00,
2013-04-16 18:13:00,79.0,57.0,30.10,WNW,286,8.0,13.0,47,0.00,,,0.00,,2013-04-16 22:13:00,
2013-04-16 18:22:00,79.0,57.0,30.10,SSW,203,2.0,12.0,47,0.00,,,0.00,,2013-04-16 22:22:00,
2013-04-16 18:33:00,79.0,58.0,30.09,West,259,1.0,13.0,48,0.00,,,0.00,,2013-04-16 22:33:00,
2013-04-16 18:43:00,79.0,58.0,30.09,West,259,1.0,13.0,48,0.00,,,0.00,,2013-04-16 22:43:00,
2013-04-16 18:52:00,78.0,56.0,30.10,WSW,250,2.0,17.0,47,0.00,,,0.00,,2013-04-16 22:52:00,
2013-04-16 19:02:00,77.0,55.0,30.09,SW,230,3.0,10.0,47,0.00,,,0.00,,2013-04-16 23:02:00,
2013-04-16 19:12:00,77.0,55.0,30.09,SW,230,3.0,10.0,47,0.00,,,0.00,,2013-04-16 23:12:00,
2013-04-16 19:22:00,76.0,55.0,30.10,West,271,4.0,11.0,49,0.00,,,0.00,,2013-04-16 23:22:00,
2013-04-16 19:32:00,76.0,56.0,30.10,South,182,0.0,7.0,50,0.00,,,0.00,,2013-04-16 23:32:00,
2013-04-16 19:43:00,76.0,56.0,30.10,South,182,0.0,7.0,50,0.00,,,0.00,,2013-04-16 23:43:00,
2013-04-16 19:52:00,75.0,55.0,30.10,West,266,3.0,6.0,50,0.00,,,0.00,,2013-04-16 23:52:00,
2013-04-16 20:02:00,75.0,55.0,30.10,SSW,210,4.0,7.0,50,0.00,,,0.00,,2013-04-17 00:02:00,
2013-04-16 20:12:00,75.0,55.0,30.10,SSW,210,4.0,7.0,50,0.00,,,0.00,,2013-04-17 00:12:00,
2013-04-16 20:22:00,75.0,55.0,30.09,SW,233,0.0,6.0,50,0.00,,,0.00,,2013-04-17 00:22:00,
2013-04-16 20:32:00,75.0,56.0,30.09,South,188,0.0,5.0,51,0.00,,,0.00,,2013-04-17 00:32:00,
2013-04-16 20:42:00,75.0,56.0,30.09,South,188,0.0,5.0,51,0.00,,,0.00,,2013-04-17 00:42:00,
2013-04-16 20:52:00,74.0,55.0,30.10,South,188,0.0,0.0,51,0.00,,,0.00,,2013-04-17 00:52:00,
2013-04-16 21:02:00,74.0,55.0,30.10,South,188,0.0,1.0,52,0.00,,,0.00,,2013-04-17 01:02:00,
2013-04-16 21:12:00,74.0,55.0,30.10,South,188,0.0,1.0,52,0.00,,,0.00,,2013-04-17 01:12:00,
2013-04-16 21:22:00,74.0,55.0,30.11,South,188,0.0,2.0,52,0.00,,,0.00,,2013-04-17 01:22:00,
2013-04-16 21:32:00,74.0,56.0,30.13,WNW,303,4.0,6.0,54,0.00,,,0.00,,2013-04-17 01:32:00,
2013-04-16 21:42:00,74.0,56.0,30.13,WNW,303,4.0,6.0,54,0.00,,,0.00,,2013-04-17 01:42:00,
2013-04-16 21:52:00,65.0,58.0,30.18,WNW,290,19.0,36.0,78,0.01,,,0.01,,2013-04-17 01:52:00,
2013-04-16 22:02:00,61.0,57.0,30.19,NNW,339,19.0,31.0,88,0.24,,,0.24,,2013-04-17 02:02:00,
2013-04-16 22:12:00,61.0,57.0,30.19,NNW,339,19.0,31.0,88,0.24,,,0.24,,2013-04-17 02:12:00,
2013-04-16 22:22:00,60.0,57.0,30.21,North,350,13.0,20.0,90,0.31,,,0.31,,2013-04-17 02:22:00,
2013-04-16 22:32:00,60.0,58.0,30.24,NW,315,14.0,25.0,92,0.38,,,0.38,,2013-04-17 02:32:00,
2013-04-16 22:42:00,60.0,58.0,30.24,NW,315,14.0,25.0,92,0.38,,,0.38,,2013-04-17 02:42:00,
2013-04-16 22:52:00,59.0,57.0,30.24,NW,314,7.0,20.0,92,0.44,,,0.45,,2013-04-17 02:52:00,
2013-04-16 23:02:00,59.0,57.0,30.23,NNE,13,3.0,11.0,92,0.27,,,0.51,,2013-04-17 03:02:00,
2013-04-16 23:12:00,59.0,57.0,30.23,NNE,13,3.0,11.0,92,0.27,,,0.51,,2013-04-17 03:12:00,
2013-04-16 23:22:00,59.0,57.0,30.23,NNE,32,0.0,1.0,92,0.26,,,0.57,,2013-04-17 03:22:00,
2013-04-16 23:33:00,59.0,57.0,30.21,SE,146,0.0,5.0,93,0.20,,,0.58,,2013-04-17 03:33:00,
2013-04-16 23:42:00,59.0,57.0,30.21,SE,146,0.0,5.0,93,0.20,,,0.58,,2013-04-17 03:42:00,
2013-04-16 23:53:00,59.0,57.0,30.20,SSE,156,0.0,4.0,93,0.14,,,0.59,,2013-04-17 03:53:00,